[[{"header":{"parameterUnit":"m.s-1","parameterCategory":1,"la1":30.2991,"la2":30.254,"lo1":-89.0895,"lo2":-89.0444,"dy":0.0017,"dx":0.0017,"nx":28,"ny":28,"refTime":"2024-03-05T09:00:00:Z","depth":0,"parameterNumber":2,"parameterNumberName":"U-component_of_WINDS"},"data":[0,0,0,0,0,0,0,0,0,0,0,0,0,0,0,0,0,0,0,0,0,0,0,0,0,0,0,0,0,0,0,0,0,0,0,0,0,0,0,0,0,0,0,0,0,0,0,0,0,0,0,0,0,0,0,0,0,0,-6.003,-6.0032,0,-6.0251,-6.0253,-6.0256,-6.0206,-6.0202,-6.0198,-6.0194,-6.0423,-6.0432,-6.0442,0,0,0,0,0,0,0,0,0,0,0,0,0,-5.9568,-5.9576,-6.0029,-6.0032,-6.0035,-6.025,-6.0253,-6.0256,-6.0207,-6.0202,-6.0196,-6.0192,-6.0419,-6.0431,-6.0443,0,0,0,0,0,0,0,0,0,0,0,0,0,-5.9776,-5.9579,-6.0029,-6.0036,-6.0039,-6.025,-6.0253,-6.0257,-6.0208,-6.0201,-6.0195,-6.0189,-6.0415,-6.043,-6.0445,-6.0663,0,0,-6.0491,-6.0497,0,0,0,0,0,0,0,0,-5.9765,-5.9793,-6.0032,-6.0036,-6.004,-6.0194,-6.0174,-6.0393,-6.0209,-6.0144,-6.0193,-6.0186,-6.0352,-6.0372,-6.0427,-6.0673,-6.0683,-6.0492,-6.0501,-6.0507,-6.0512,0,0,0,0,0,0,0,-5.975,-5.9784,-6.0117,-6.0036,-6.004,-6.0029,-6.0052,-6.0216,-6.028,-6.0149,-6.0146,-6.0173,-6.0353,-6.0413,-6.0432,-6.0687,-6.0491,-6.0505,-6.0514,-6.052,-6.1124,-6.1131,0,0,0,0,0,0,-5.9732,-5.9772,-6.011,-6.0124,-5.9884,-6.0043,-6.0068,-6.0151,-6.0278,-6.0292,-6.0178,-6.0169,-6.039,-6.0415,-6.044,-6.0703,-6.0507,-6.0521,-6.053,-6.1117,-6.1125,-6.1133,0,0,0,0,0,0,-5.9723,-5.9763,-6.0101,-5.9947,-5.9989,-6.0057,-6.0151,-6.0159,-6.0218,-6.03,-6.0312,-6.0227,-6.0386,-6.0419,-6.0608,-6.0711,-6.0528,-6.0542,-6.1109,-6.112,-6.1129,-6.1232,0,0,0,0,0,0,-5.9709,-5.976,-5.9842,-5.9949,-5.9998,-6.0264,-6.0157,-6.0167,-6.0244,-6.0235,-6.0349,-6.0362,-6.0384,-6.0586,-6.0623,-6.0728,-6.0553,-6.11,-6.1113,-6.1126,-6.122,-6.1245,-6.1267,0,0,0,0,0,-5.9693,-5.9863,-5.9847,-5.9888,-6.0102,-6.027,-6.0298,-6.0319,-6.0253,-6.0337,-6.0389,-6.0359,-6.0694,-6.0605,-6.0647,-6.0758,-6.1093,-6.111,-6.1125,-6.121,-6.124,-6.1266,0,0,0,0,0,0,-5.9767,-5.9877,-5.986,-6.007,-6.0161,-6.0262,-6.0368,-6.0351,-6.0463,-6.045,-6.0472,-6.0498,-6.0691,-6.0744,-6.0643,-6.0976,-6.0884,-6.0909,-6.0934,-6.0964,-6.0987,-6.097,-6.0566,0,0,0,0,0,-5.9808,-5.9934,-6.0024,-6.02,-6.0247,-6.03,-6.0374,-6.0382,-6.0478,-6.0516,-6.0583,-6.0678,-6.0804,-6.0887,-6.1008,-6.1228,-6.1252,-6.1325,-6.1348,-6.1367,-6.1388,-6.1509,-6.1542,-6.1185,-6.1185,-6.1185,0,0,-5.9893,-5.9969,-6.0047,-6.0217,-6.0288,-6.042,-6.0333,-6.0475,-6.0573,-6.0538,-6.072,-6.0773,-6.088,-6.1085,-6.1179,-6.1135,-6.1492,-6.1387,-6.1402,-6.1413,-6.1528,-6.1562,-6.1592,-6.1196,-6.1194,-6.1192,0,0,-6.0115,-6.0185,-6.0339,-6.0413,-6.0523,-6.0557,-6.0594,-6.0699,-6.0732,-6.0915,-6.0891,-6.1009,-6.1227,-6.1304,-6.1372,-6.1625,-6.1601,-6.1665,-6.1786,-6.1903,-6.1931,-6.1956,-6.2046,-6.2078,-6.1685,-6.1686,-6.1686,0,-6.0207,-6.0403,-6.0421,-6.0566,-6.0642,-6.0616,-6.0773,-6.0844,-6.0988,-6.1042,-6.099,-6.1263,-6.1334,-6.1557,-6.1619,-6.1675,-6.1719,-6.1651,-6.1925,-6.1951,-6.1974,-6.2061,-6.2095,-6.1693,-6.1692,-6.1691,-6.169,0,-6.0511,-6.0647,-6.0759,-6.0898,-6.0987,-6.1137,-6.1179,-6.1267,-6.1268,-6.1308,-6.1495,-6.1579,-6.1717,-6.1771,-6.1773,-6.1995,-6.1964,-6.192,-6.1827,-6.2015,-6.2096,-6.213,-6.1702,-6.17,-6.1698,-6.1696,0,0,-6.0784,-6.0932,-6.0973,-6.1036,-6.1155,-6.1262,-6.1412,-6.1546,-6.1621,-6.1722,-6.1848,-6.2033,-6.1993,-6.207,-6.2081,-6.2184,-6.238,-6.2127,-6.213,-6.217,-6.2629,-6.2662,-6.2699,-6.2365,-6.2371,-6.2376,-6.262,0,-6.1016,-6.1279,-6.1301,-6.1538,-6.1665,-6.1643,-6.1774,-6.1862,-6.1904,-6.2019,-6.2066,-6.2197,-6.2133,-6.218,-6.2281,-6.2334,-6.2472,-6.2317,-6.2483,-6.2489,-6.2456,-6.2742,-6.2777,-6.3002,-6.2652,-6.2657,-6.2661,0,-6.1322,-6.1431,-6.1681,-6.1783,-6.1837,-6.1954,-6.2079,-6.2189,-6.2289,-6.2313,-6.24,-6.2398,-6.2553,-6.2456,-6.267,-6.2565,-6.2634,-6.2671,-6.268,-6.2696,-6.2586,-6.2765,-6.3075,-6.3109,-6.2712,-6.2708,-6.2704,0,-6.1495,-6.1705,-6.1882,-6.1937,-6.2061,-6.2144,-6.22,-6.2294,-6.2373,-6.2483,-6.2535,-6.2662,-6.2732,-6.2831,-6.2863,-6.2789,-6.3077,-6.2982,-6.3101,-6.31,-6.3161,-6.3157,-6.3486,-6.3208,-6.3207,-6.3207,-6.3206,0,-6.1752,-6.1905,-6.1961,-6.207,-6.2242,-6.2266,-6.2436,-6.2487,-6.2571,-6.269,-6.268,-6.2792,-6.2828,-6.2947,-6.2974,-6.3147,-6.3179,-6.3203,-6.3208,-6.3203,-6.32,-6.3248,-6.3233,-6.3216,-6.3214,-6.3212,-6.321,0,-6.1974,-6.2018,-6.2209,-6.2311,-6.234,-6.2463,-6.2551,-6.2656,-6.2696,-6.2847,-6.2884,-6.2948,-6.3088,-6.313,-6.3298,-6.3316,-6.3519,-6.3511,-6.3485,-6.3485,-6.3601,-6.3589,-6.3973,-6.4024,-6.3712,-6.3715,-6.3718,0,-6.2134,-6.2251,-6.2367,-6.2445,-6.2504,-6.2631,-6.2712,-6.2742,-6.2827,-6.2951,-6.3041,-6.3179,-6.329,-6.3514,-6.3576,-6.3705,-6.3699,-6.3824,-6.3718,-6.371,-6.37,-6.3692,-6.3704,-6.3844,-6.3847,-6.385,-6.3852,0,-6.2413,-6.243,-6.2546,-6.2672,-6.2769,-6.2869,-6.2966,-6.3031,-6.3075,-6.3171,-6.3313,-6.34,-6.3571,-6.3708,-6.3839,-6.3897,-6.3883,-6.3885,-6.3919,-6.3915,-6.3895,-6.3907,-6.3539,-6.3876,-6.3873,-6.3872,-6.387,-6.3869,-6.2609,-6.2713,-6.281,-6.2941,-6.3017,-6.3108,-6.3211,-6.3266,-6.3384,-6.3525,-6.3536,-6.369,-6.3788,-6.3963,-6.4028,-6.4149,-6.4113,-6.4163,-6.4175,-6.4187,-6.4196,-6.3877,-6.4173,-6.4173,-6.4172,-6.4172,-6.4171,0,-6.2887,-6.2949,-6.3069,-6.3205,-6.3308,-6.3285,-6.3392,-6.348,-6.3615,-6.3708,-6.3818,-6.3981,-6.4115,-6.4188,-6.4321,-6.4404,-6.4401,-6.4438,-6.4431,-6.4445,-6.4221,-6.4177,-6.4438,-6.4438,-6.4438,-6.4438,-6.4438,-6.4438,-6.3044,-6.3218,-6.3246,-6.3458,-6.3519,-6.3669,-6.3732,-6.3816,-6.389,-6.4073,-6.4183,-6.423,-6.4316,-6.4455,-6.4577,-6.4595,-6.4644,-6.4686,-6.47,-6.4488,-6.4461,-6.4435,-6.4394,-6.4696,-6.4697,-6.4914,-6.4916,-6.4917]},{"header":{"parameterUnit":"m.s-1","parameterCategory":1,"la1":30.2991,"la2":30.254,"lo1":-89.0895,"lo2":-89.0444,"dy":0.0017,"dx":0.0017,"nx":28,"ny":28,"refTime":"2024-03-05T09:00:00:Z","depth":0,"parameterNumber":3,"parameterNumberName":"V-component_of_WINDS"},"data":[0,0,0,0,0,0,0,0,0,0,0,0,0,0,0,0,0,0,0,0,0,0,0,0,0,0,0,0,0,0,0,0,0,0,0,0,0,0,0,0,0,0,0,0,0,0,0,0,0,0,0,0,0,0,0,0,0,0,0.2297,0.2298,0,0.2339,0.2339,0.234,0.2333,0.2332,0.2332,0.2331,0.2372,0.2374,0.2376,0,0,0,0,0,0,0,0,0,0,0,0,0,0.2212,0.2214,0.2297,0.2298,0.2298,0.2339,0.2339,0.234,0.2333,0.2332,0.2331,0.2331,0.2372,0.2374,0.2376,0,0,0,0,0,0,0,0,0,0,0,0,0,0.2251,0.2214,0.2297,0.23,0.2301,0.2339,0.2339,0.234,0.2333,0.2332,0.2331,0.233,0.2371,0.2374,0.2376,0.2414,0,0,0.2384,0.2385,0,0,0,0,0,0,0,0,0.2249,0.2254,0.2299,0.23,0.2301,0.233,0.2324,0.2365,0.2334,0.2321,0.2331,0.233,0.2359,0.2362,0.2372,0.2416,0.2417,0.2384,0.2386,0.2387,0.2388,0,0,0,0,0,0,0,0.2246,0.2252,0.2314,0.23,0.2301,0.2299,0.2303,0.2332,0.2345,0.2322,0.2322,0.2327,0.2359,0.237,0.2373,0.2418,0.2384,0.2387,0.2388,0.2389,0.2494,0.2495,0,0,0,0,0,0,0.2243,0.225,0.2312,0.2315,0.2272,0.2301,0.2306,0.2321,0.2345,0.2348,0.2327,0.2326,0.2366,0.237,0.2375,0.242,0.2387,0.239,0.2391,0.2493,0.2494,0.2496,0,0,0,0,0,0,0.2241,0.2248,0.2311,0.2282,0.229,0.2304,0.2321,0.2323,0.2334,0.2349,0.2351,0.2336,0.2365,0.2371,0.2404,0.2422,0.2391,0.2393,0.2491,0.2493,0.2495,0.2511,0,0,0,0,0,0,0.2238,0.2248,0.2262,0.2283,0.2292,0.234,0.2322,0.2324,0.2338,0.2337,0.2358,0.236,0.2365,0.24,0.2407,0.2425,0.2395,0.249,0.2492,0.2494,0.2509,0.2513,0.2517,0,0,0,0,0,0.2235,0.2265,0.2263,0.227,0.231,0.2341,0.2346,0.2351,0.234,0.2354,0.2364,0.236,0.2419,0.2404,0.2411,0.243,0.2489,0.2492,0.2494,0.2507,0.2513,0.2517,0,0,0,0,0,0,0.2245,0.2267,0.2266,0.2303,0.232,0.2339,0.2358,0.2356,0.2376,0.2374,0.2379,0.2384,0.2417,0.2427,0.241,0.2467,0.2452,0.2456,0.246,0.2465,0.2469,0.2465,0.2397,0,0,0,0,0,0.2252,0.2275,0.2293,0.2324,0.2333,0.2344,0.2357,0.236,0.2378,0.2385,0.2397,0.2414,0.2437,0.2451,0.2473,0.2511,0.2515,0.2527,0.2531,0.2534,0.2538,0.2558,0.2564,0.2504,0.2504,0.2504,0,0,0.2265,0.2281,0.2295,0.2326,0.234,0.2364,0.235,0.2376,0.2393,0.2389,0.242,0.243,0.245,0.2486,0.2502,0.2495,0.2555,0.2538,0.254,0.2542,0.2562,0.2567,0.2572,0.2506,0.2506,0.2506,0,0,0.2302,0.2316,0.2344,0.2358,0.2379,0.2386,0.2393,0.2413,0.2419,0.2452,0.2449,0.247,0.2508,0.2522,0.2534,0.2577,0.2574,0.2584,0.2604,0.2624,0.2629,0.2633,0.2648,0.2653,0.2588,0.2588,0.2588,0,0.2316,0.2352,0.2358,0.2384,0.2398,0.2396,0.2423,0.2436,0.2463,0.2473,0.2465,0.2513,0.2526,0.2565,0.2575,0.2586,0.2593,0.2581,0.2628,0.2632,0.2636,0.265,0.2656,0.2589,0.2589,0.2589,0.2589,0,0.2368,0.2393,0.2413,0.2439,0.2456,0.2482,0.2492,0.2508,0.2509,0.2517,0.255,0.2566,0.259,0.26,0.2601,0.2639,0.2634,0.2627,0.2611,0.2643,0.2656,0.2662,0.259,0.259,0.259,0.2589,0,0,0.2411,0.2442,0.2449,0.2461,0.2484,0.2503,0.253,0.2555,0.2568,0.2587,0.2609,0.2642,0.2636,0.265,0.2652,0.267,0.2703,0.2661,0.2661,0.2668,0.2745,0.275,0.2756,0.2701,0.2702,0.2703,0.2743,0,0.245,0.2498,0.2504,0.2546,0.2569,0.2567,0.2591,0.2607,0.2616,0.2636,0.2646,0.2669,0.2659,0.2668,0.2685,0.2695,0.2718,0.2692,0.2721,0.2722,0.2716,0.2763,0.2768,0.2806,0.2749,0.275,0.275,0,0.2501,0.2522,0.2567,0.2587,0.2597,0.2618,0.2641,0.2661,0.268,0.2685,0.2701,0.2702,0.2729,0.2713,0.2751,0.2733,0.2745,0.2752,0.2753,0.2756,0.2737,0.2766,0.2818,0.2823,0.2759,0.2758,0.2757,0,0.2528,0.2567,0.2599,0.2609,0.2634,0.2649,0.266,0.2678,0.2692,0.2713,0.2722,0.2745,0.2758,0.2775,0.2782,0.277,0.2819,0.2804,0.2824,0.2823,0.2833,0.2832,0.2887,0.2842,0.2842,0.2842,0.2842,0,0.257,0.2597,0.2611,0.263,0.2661,0.2668,0.2697,0.2708,0.2724,0.2745,0.2746,0.2765,0.2774,0.2795,0.28,0.283,0.2836,0.284,0.2841,0.284,0.2839,0.2847,0.2845,0.2844,0.2843,0.2843,0.2843,0,0.2604,0.2615,0.2649,0.267,0.2676,0.2698,0.2716,0.2734,0.2743,0.277,0.2777,0.279,0.2815,0.2824,0.2854,0.2858,0.2892,0.2891,0.2886,0.2886,0.2905,0.2903,0.2966,0.2974,0.2925,0.2925,0.2925,0,0.263,0.2651,0.2674,0.2689,0.2701,0.2724,0.2739,0.2747,0.2763,0.2786,0.2802,0.2827,0.2847,0.2887,0.2899,0.2922,0.2921,0.2942,0.2924,0.2922,0.2921,0.2919,0.2921,0.2945,0.2945,0.2946,0.2946,0,0.2674,0.2679,0.27,0.2725,0.2743,0.2762,0.2781,0.2792,0.2803,0.2821,0.2846,0.2862,0.2893,0.2918,0.2941,0.2952,0.2951,0.2951,0.2957,0.2955,0.2951,0.2953,0.2894,0.295,0.2949,0.2949,0.2949,0.2949,0.2704,0.2723,0.2743,0.2767,0.2783,0.28,0.2819,0.283,0.2852,0.2878,0.2882,0.2909,0.2928,0.296,0.2972,0.2993,0.2987,0.2996,0.2998,0.2999,0.3,0.2949,0.2997,0.2997,0.2997,0.2997,0.2997,0,0.2748,0.2761,0.2784,0.281,0.283,0.2828,0.2848,0.2864,0.2889,0.2907,0.2927,0.2957,0.2981,0.2995,0.3019,0.3033,0.3033,0.3039,0.3038,0.304,0.3004,0.2997,0.3039,0.3039,0.3039,0.3039,0.3039,0.3039,0.2773,0.2805,0.2812,0.285,0.2863,0.2891,0.2903,0.2919,0.2933,0.2966,0.2987,0.2996,0.3013,0.3038,0.306,0.3063,0.3072,0.3078,0.3081,0.3047,0.3043,0.3039,0.3032,0.308,0.308,0.3115,0.3115,0.3116]}]]